Location: Katzenstein
(51.7484°N, 10.2155°E)
Time: 09:57:43
(UTC+00:00)

H-2A R/B - Pass Details

Date: 17 February 2020
Orbit: 530 x 652 km, 98.3° (Epoch: 29 March)

Event Time Altitude Azimuth Distance (km) Brightness Sun altitude
Rises 05:14:21 0° 6° (N) 2,878 6.0 -12.4°
Reaches altitude 10° 05:16:44 10° 355° (N) 1,990 5.1 -12.1°
Maximum altitude 05:20:25 28° 297° (WNW) 1,197 3.5 -11.5°
Drops below altitude 10° 05:24:10 10° 239° (WSW) 2,030 4.7 -10.9°
Enters shadow 05:24:51 - 235° (SW) 2,276 5.0 -10.8°
